Other Public Products
Issued by NWS Grand Forks, ND

Home | Current Version | Previous Version | Text Only | Print | Product List | Glossary Off
Versions: 1 2 3 4 5 6 7 8 9 10 11 12 13 14 15 16 17 18 19 20 21 22 23 24 25 26 27 28 29 30 31 32 33 34 35 36 37 38 39 40 41 42 43 44 45 46 47 48 49 50

902
FPUS83 KFGF 240431
OPUFGF
PRAIRIE TO PINES WEATHER ROUNDUP
NATIONAL WEATHER SERVICE EASTERN NORTH DAKOTA/GRAND FORKS ND
1100 PM CDT SUN JUL 23 2017

 **SATELLITE DATA USED TO AUGMENT SKY COVER AT AUTOMATED STATIONS**
 *****  WEATHER ACROSS EASTERN NORTH DAKOTA  *****

CITY           SKY/WX    TMP DP  RH WIND       PRES   REMARKS
GRAND FORKS    FAIR      64  63  96 S5        29.98R
GRAND FORKS AF FAIR      62  60  94 SW3       29.99R
GRAND CITY NWS NOT AVBL
BUXTON           N/A     67  65  95 S2          N/A
DEVILS LAKE    FAIR      69  63  81 SE12      29.99S
FARGO          FAIR      64  61  90 CALM      29.99S
WAHPETON ARPT  FAIR      63  59  88 CALM      30.01S
$$

 *****  WEATHER ACROSS CENTRAL AND WESTERN NORTH DAKOTA  *****

CITY           SKY/WX    TMP DP  RH WIND       PRES   REMARKS
JAMESTOWN      FAIR      65  58  78 SE5       29.99S
BISMARCK       FAIR      66  59  78 SE6       29.96S
MINOT          FAIR      73  58  59 SE12      29.92S
MINOT AFB      FAIR      68  58  71 SE10      29.91S
GARRISON         N/A     71  60  68 SE9       29.93S
WILLISTON      FAIR      81  55  40 SE14      29.85S
DICKINSON      FAIR      73  56  54 SE14      29.93S
HETTINGER      FAIR      74  53  48 SE15G22   29.97S
$$

 *****  OTHER OBSERVATIONS NORTHEAST NORTH DAKOTA  *****

CITY           SKY/WX    TMP DP  RH WIND       PRES   REMARKS
WALHALLA       NOT AVBL
LANGDON        FAIR      61  61 100 SE8       29.99S
CAVALIER       FAIR      64  63  94 S3        29.96S
GRAFTON        FAIR      63  61  94 S6        29.99S
CANDO          NOT AVBL
FORT TOTTEN    NOT AVBL
ROLLA            N/A     61  59  94 S5        29.99S
RUGBY          NOT AVBL
 ***** THE ABOVE OBSERVATIONS ARE NON NWS ARE NOT QUALITY
        CONTROLLED AND MAY MIS-REPORT RAIN FOR SNOW...
$$

 *****  OTHER OBSERVATIONS SOUTHEAST NORTH DAKOTA *****

CITY           SKY/WX    TMP DP  RH WIND       PRES   REMARKS
COOPERSTOWN    FAIR      63  63 100 SE7       30.01S
VALLEY CITY    FAIR      66  66 100 SE7       30.03R
OAKES          NOT AVBL
GWINNER        CLEAR     63  61  94 CALM      30.01S
SHEYENNE NWR     N/A     62  62 100 CALM      29.95S
BUFFALO          N/A     63  60  88 E5          N/A
WYNDMERE       NOT AVBL
 ***** THE ABOVE OBSERVATIONS ARE NON NWS ARE NOT QUALITY
       CONTROLLED AND MAY MIS-REPORT RAIN FOR SNOW...
$$

  *****  WEATHER ACROSS NORTHERN MINNESOTA  *****

CITY           SKY/WX    TMP DP  RH WIND       PRES   REMARKS
FLAG ISLAND    FAIR      70  61  73 CALM      29.98R HAZE
WARROAD        FAIR      63  59  88 S3        30.00R FOG
ROSEAU         FAIR      61  55  82 CALM      30.00R
HALLOCK        FAIR      63  61  94 S3        29.97S
THF RVR FALLS  FAIR      63  57  81 SE6       30.01S
HALSTAD          N/A     63  61  94 CALM        N/A
FOSSTON        FAIR      61  55  82 SE3       30.03R
BAUDETTE       FAIR      63  59  87 SW3       30.00R
WASKISH        FAIR      59  57  94 CALM      30.02R
CROOKSTON      FAIR      63  61  94 S5        30.00S
$$
  *****  WEATHER ACROSS CENTRAL AND WEST MINNESOTA  *****

CITY           SKY/WX    TMP DP  RH WIND       PRES   REMARKS
BEMIDJI        FAIR      61  57  87 SW3       30.03S
PARK RAPIDS    FAIR      64  58  80 E3        30.03R
WADENA         FAIR      59  57  94 CALM      30.04R
DETROIT LAKES  FAIR      66  57  72 SE5       30.04S
MOORHEAD       FAIR      66  61  82 CALM      30.01R
FERGUS FALLS   FAIR      66  61  82 CALM      30.01R
ELBOW LAKE     MOCLDY    64  62  95 CALM      30.03R
MORRIS MN      MOCLDY    64  61  88 NW3       30.01S
STAPLES        FAIR      61  55  82 CALM      30.04R
WHEATON        FAIR      61  57  88 CALM      30.03S
$$
  *****  WEATHER ELSEWHERE ACROSS MINNESOTA  *****

CITY           SKY/WX    TMP DP  RH WIND       PRES   REMARKS
DULUTH         MOCLDY    53  53 100 S3        30.05S FOG
INTRNTL FALLS  FAIR      54  51  90 CALM      30.00S
ELY            FAIR      55  52  88 CALM      30.05S
CLOQUET        FAIR      55  54  94 CALM      30.05S
BRAINERD       FAIR      61  58  90 SE3       30.04R
HIBBING        FAIR      59  58  96 S5        30.04S
ALEXANDRIA     FAIR      66  60  81 E6        30.04R
SAINT CLOUD    FAIR      61  60  97 CALM      30.03R
MINNEAPOLIS    FAIR      67  57  70 E8        30.01R
$$

  *****  WEATHER ACROSS SOUTH DAKOTA  *****

CITY           SKY/WX    TMP DP  RH WIND       PRES   REMARKS
SIOUX FALLS    FAIR      65  60  84 E6        30.02R
BROOKINGS      FAIR      66  58  75 NE3       30.04R
WATERTOWN      FAIR      65  59  81 CALM      30.03R
HURON          FAIR      68  62  81 E5        30.00S
SISSETON         N/A     61  59  93 SW3       30.01S
ABERDEEN       FAIR      68  60  75 E8        30.00S
MITCHELL       FAIR      67  61  81 E7        30.00S
PIERRE         FAIR      70  55  59 E8        29.97R
MOBRIDGE       FAIR      72  59  63 SE13      29.95F
RAPID CITY     FAIR      75  47  36 SE10      29.97R
$$

  *****  SOME WEATHER IN NEARBY STATES *****

CITY           SKY/WX    TMP DP  RH WIND       PRES   REMARKS
GLASGOW MT     NOT AVBL
GREAT FALLS MT FAIR      77  33  20 W12       29.82R
CHEYENNE WY    FAIR      73  44  35 SE16      30.17R
SCOTTSBLUFF NE FAIR      74  52  46 E7        30.00R
OMAHA NE       FAIR      72  62  71 N5        29.99R
DES MOINES IA  FAIR      73  59  61 N3        29.96R
DAVENPORT IA   FAIR      67  63  87 NW6       29.93R
CHICAGO IL     FAIR      72  66  81 N7        29.86R
EAU CLAIRE WI  CLOUDY    64  57  78 N6        29.99R
LA CROSSE WI   FAIR      68  61  78 N9        29.96R
$$

  *****  SOME NATIONAL WEATHER *****

CITY           SKY/WX    TMP DP  RH WIND       PRES   REMARKS
LA GUARDIA NY  CLOUDY    74  68  81 SE13      29.86R
RALEIGH NC     MOCLDY    71  70  96 SW6       29.88S
ATLANTA GA     MOCLDY    80  74  81 SW3       29.96S
NEW ORLEANS LA FAIR      77  73  87 SW7       29.96R
OKLAHOMA CITY  MOCLDY    76  70  82 S3        29.95S
ALBUQUERQUE NM MOCLDY    76  57  51 SE16      30.19R
SALT LAKE CITY FAIR      85  45  24 E7        29.98R
LOS ANGELES CA FAIR      68  63  84 W8        29.88R
BOISE ID       FAIR      86  42  21 CALM      29.85R
SEATTLE WA     FAIR      68  53  58 NW9       30.02R
$$

*** WEATHER ACROSS MANITOBA...SASKATCHEWAN AND ONTARIO ***
                ***ONTARIO***

CITY           SKY/WX    TMP DP  RH WIND       PRES   REMARKS
GERALDTON      PTCLDY    57  52  82 E2        30.00R
THUNDER BAY    PTCLDY    55  54  94 W3        30.01R
SIOUX LOOKOUT  MOCLDY    61  55  82 S5        29.98S
TORONTO        CLOUDY    70  57  64 E12       29.75R
BIG TROUT LK   CLOUDY    68  52  56 S10       29.88S
PICKLE LAKE    NOT AVBL
DRYDEN         CLEAR     68  52  56 S6        29.99S
KENORA         PTCLDY    66  59  77 S5        29.99F
$$
                *** MANITOBA***

CITY           SKY/WX    TMP DP  RH WIND       PRES   REMARKS
BRANDON        PTCLDY    66  61  82 SE7       29.93S
DAUPHIN        CLOUDY    68  61  77 S6        29.87F
ISLAND LAKE    NOT AVBL
PILOT MOUND      N/A     61  57  88 SE8         N/A
THE PAS        PTCLDY    64  63  94 SE5       29.79S
THOMPSON       PTCLDY    61  57  88 CALM      29.79R
WINNIPEG       CLEAR     68  63  83 S7        29.94F
LYNN LAKE      MOCLDY    61  59  94 S6        29.77R
CHURCHILL      CLOUDY    64  59  82 W9        29.71R
GILLAM         CLOUDY    66  57  72 VRB6      29.77S
$$
                ***SASKATCHEWAN***

CITY           SKY/WX    TMP DP  RH WIND       PRES   REMARKS
ESTEVAN        PTCLDY    72  57  60 SE5       29.85S
KINDERSLEY     PTCLDY    73  55  53 E17G23    29.64F
LLOYDMINSTER   LGT RAIN  64  59  82 E17G23    29.67F
PRINCE ALBERT  PTCLDY    66  63  88 E8        29.76F
REGINA         PTCLDY    75  55  50 SE18G25   29.77R
YORKTON        CLOUDY    72  63  73 SE10      29.84S



USA.gov is the U.S. government's official web portal to all federal, state and local government web resources and services.